Weather History for Sydney Airport, New South Wales

Change the Weather History Date:

Saturday, February 8, 2014

  Actual Average Record
Temperature  
Mean Temperature 76 °F -  
Max Temperature 86 °F 79 °F - ()
Min Temperature 66 °F 65 °F - ()
Cooling Degree Days 11    
Growing Degree Days 26 (Base 50)    
Moisture  
Dew Point 60 °F    
Average Humidity 56    
Maximum Humidity 78    
Minimum Humidity 25    
Precipitation  
Precipitation 0.00 in 0.16 in - ()
Sea Level Pressure  
Sea Level Pressure 30.02 in    
Wind  
Wind Speed 12 mph ()    
Max Wind Speed 26 mph    
Max Gust Speed 33 mph    
Visibility 10.5 miles    
Events      
T = Trace of Precipitation, MM = Missing Value Source: Averaged Metar Reports

Daily Weather History Graph

Daily Weather History Graph

Search for Another Location

Airport:

Trip Planner

Search our weather history database for the weather conditions in past years. The results will help you decide how hot, cold, wet, or windy it might be!

Date:

Astronomy

Feb. 08, 2014 Rise Set
Actual Time 6:23 AM AEDT 7:55 PM AEDT
Civil Twilight 5:56 AM AEDT 8:21 PM AEDT
Nautical Twilight 5:24 AM AEDT 8:53 PM AEDT
Astronomical Twilight 4:50 AM AEDT 9:27 PM AEDT
Moon 2:47 PM AEDT (2/8) 12:37 AM AEDT (2/8)
Length of Visible Light 14h 25m
Length of Day
13h 31m
Waxing Gibbous, 62% of the Moon is Illuminated
Feb 8
Waxing Gibbous
Feb 15
Full
Feb 23
Last Quarter
Mar 1
New
Mar 9
First Quarter

Hourly Weather History & Observations

Time (AEDT) Temp. Heat Index Dew Point Humidity Pressure Visibility Wind Dir Wind Speed Gust Speed Precip Events Conditions
12:00 AM 73 °F - 57 °F 48% 30.03 in 19 mi NNE 10.4 mph - -   Partly Cloudy
12:00 AM 73.4 °F - 57.2 °F 57% 30.01 in - NNE 10.4 mph - N/A   Clear
12:30 AM 73.4 °F - 59.0 °F 61% 30.01 in - NNE 10.4 mph - N/A   Clear
1:00 AM 72 °F - 58 °F 52% 30.02 in - NNE 8.1 mph - -  
1:00 AM 71.6 °F - 59.0 °F 64% 30.01 in - NNE 8.1 mph - N/A   Clear
1:30 AM 71.6 °F - 59.0 °F 64% 30.01 in - NNE 8.1 mph - N/A   Clear
2:00 AM 71 °F - 59 °F 57% 30.01 in - NNE 6.9 mph - -  
2:00 AM 71.6 °F - 59.0 °F 64% 30.01 in - NNE 6.9 mph - N/A   Clear
2:30 AM 69.8 °F - 59.0 °F 68% 30.01 in - NE 5.8 mph - N/A   Clear
3:00 AM 69 °F - 60 °F 66% 30.01 in 19 mi NNE 5.8 mph - -   Partly Cloudy
3:00 AM 69.8 °F - 60.8 °F 73% 30.01 in - NNE 5.8 mph - N/A   Clear
3:30 AM 68.0 °F - 60.8 °F 78% 29.98 in - NE 5.8 mph - N/A   Clear
4:00 AM 67 °F - 61 °F 75% 29.99 in - NE 8.1 mph - -  
4:00 AM 68.0 °F - 60.8 °F 78% 29.98 in - NE 8.1 mph - N/A   Clear
4:30 AM 68.0 °F - 60.8 °F 78% 29.98 in - NNE 6.9 mph - N/A   Clear
5:00 AM 69 °F - 61 °F 68% 30.00 in - NNE 6.9 mph - -  
5:00 AM 69.8 °F - 60.8 °F 73% 29.98 in - NNE 6.9 mph - N/A   Clear
5:30 AM 68.0 °F - 60.8 °F 78% 30.01 in - NNE 5.8 mph - N/A   Clear
6:00 AM 69 °F - 61 °F 70% 30.01 in 19 mi NNE 8.1 mph - -   Partly Cloudy
6:00 AM 69.8 °F - 60.8 °F 73% 30.01 in - NNE 8.1 mph - N/A   Clear
6:30 AM 68.0 °F - 60.8 °F 78% 30.01 in - North 6.9 mph - N/A   Clear
7:00 AM 67 °F - 60 °F 70% 30.04 in - WNW 6.9 mph - -  
7:00 AM 68.0 °F - 59.0 °F 73% 30.04 in - WNW 6.9 mph - N/A   Clear
7:30 AM 69.8 °F - 59.0 °F 68% 30.04 in - WNW 5.8 mph - N/A   Clear
8:00 AM 71 °F - 59 °F 58% 30.06 in - NW 5.8 mph - -  
8:00 AM 71.6 °F - 59.0 °F 64% 30.04 in - NW 5.8 mph - N/A   Clear
8:30 AM 73.4 °F - 59.0 °F 61% 30.06 in - North 5.8 mph - N/A   Clear
9:00 AM 75 °F - 59 °F 49% 30.07 in 19 mi North 3.5 mph - -   Partly Cloudy
9:00 AM 75.2 °F - 59.0 °F 57% 30.06 in - North 3.5 mph - N/A   Clear
9:30 AM 77.0 °F - 59.0 °F 54% 30.06 in - NNE 13.8 mph - N/A   Clear
10:00 AM 79 °F - 57 °F 37% 30.07 in - NNE 13.8 mph - -  
10:00 AM 78.8 °F - 57.2 °F 47% 30.06 in - NNE 13.8 mph - N/A   Clear
10:30 AM 80.6 °F 80.5 °F 55.4 °F 42% 30.06 in - NNE 18.4 mph - N/A   Clear
11:00 AM 80 °F - 56 °F 33% 30.07 in - NNE 20.7 mph - -  
11:00 AM 80.6 °F 80.5 °F 55.4 °F 42% 30.06 in - NNE 20.7 mph - N/A   Clear
11:30 AM 82.4 °F 81.7 °F 55.4 °F 39% 30.04 in - NNE 24.2 mph - N/A   Clear
12:00 PM 82 °F - 55 °F 28% 30.05 in 25 mi NNE 24.2 mph - -   Partly Cloudy
12:00 PM 82.4 °F 81.7 °F 55.4 °F 39% 30.04 in - NNE 24.2 mph - N/A   Clear
12:30 PM 82.4 °F 81.4 °F 53.6 °F 37% 30.04 in - NNE 23.0 mph - N/A   Clear
1:00 PM 82 °F - 54 °F 27% 30.03 in - NE 21.9 mph - -  
1:00 PM 82.4 °F 81.4 °F 53.6 °F 37% 30.01 in - NE 21.9 mph - N/A   Clear
1:30 PM 82.4 °F 81.4 °F 53.6 °F 37% 30.01 in - NE 20.7 mph - N/A   Clear
2:00 PM 85 °F - 54 °F 25% 30.02 in - NE 23.0 mph - -  
2:00 PM 86.0 °F 84.2 °F 53.6 °F 33% 30.01 in - NE 23.0 mph - N/A   Clear
2:30 PM 84.2 °F 82.8 °F 53.6 °F 35% 30.01 in - NE 20.7 mph - N/A   Clear
3:00 PM 83 °F - 54 °F 27% 30.01 in 25 mi NE 23.0 mph - -   Partly Cloudy
3:00 PM 82.4 °F 81.4 °F 53.6 °F 37% 30.01 in - NE 23.0 mph - N/A   Clear
3:30 PM 84.2 °F 82.8 °F 53.6 °F 35% 29.98 in - NE 21.9 mph - N/A   Clear
4:00 PM 82 °F - 55 °F 29% 30.00 in - NE 26.5 mph - -  
4:00 PM 82.4 °F 81.7 °F 55.4 °F 39% 29.98 in - NE 26.5 mph - N/A   Clear
4:30 PM 82.4 °F 81.7 °F 55.4 °F 39% 29.98 in - NE 24.2 mph - N/A   Clear
5:00 PM 82 °F - 57 °F 32% 30.00 in - NE 25.3 mph - -  
5:00 PM 82.4 °F 82.0 °F 57.2 °F 42% 29.98 in - NE 25.3 mph - N/A   Clear
5:30 PM 80.6 °F 81.5 °F 60.8 °F 51% 29.98 in - NE 23.0 mph - N/A   Clear
6:00 PM 82 °F - 62 °F 40% 30.00 in 25 mi NE 24.2 mph - -   Partly Cloudy
6:00 PM 82.4 °F 83.4 °F 62.6 °F 51% 29.98 in - NE 24.2 mph - N/A   Clear
6:30 PM 78.8 °F - 62.6 °F 57% 29.98 in - NE 23.0 mph - N/A   Clear
6:42 PM 78.8 °F - 64.4 °F 61% 30.01 in - NE 21.9 mph 33.4 mph N/A   Clear
7:00 PM 77 °F - 64 °F 56% 30.01 in - NE 23.0 mph - -  
7:00 PM 77.0 °F - 64.4 °F 65% 30.01 in - NE 23.0 mph - N/A   Clear
7:30 PM 77.0 °F - 64.4 °F 65% 30.01 in - NE 19.6 mph - N/A   Clear
8:00 PM 76 °F - 66 °F 63% 30.03 in - NE 21.9 mph - -  
8:00 PM 75.2 °F - 66.2 °F 73% 30.01 in 6.2 mi NE 21.9 mph - N/A   Partly Cloudy
8:30 PM 75.2 °F - 66.2 °F 73% 30.04 in 6.2 mi NE 18.4 mph - N/A   Partly Cloudy
9:00 PM 76 °F - 66 °F 63% 30.06 in 25 mi NNE 18.4 mph - -   Partly Cloudy
9:00 PM 75.2 °F - 66.2 °F 73% 30.04 in 6.2 mi NNE 18.4 mph - N/A   Partly Cloudy
9:30 PM 75.2 °F - 66.2 °F 73% 30.06 in 6.2 mi NNE 18.4 mph - N/A   Partly Cloudy
10:00 PM 76 °F - 66 °F 64% 30.07 in - NNE 15.0 mph - -  
10:00 PM 75.2 °F - 66.2 °F 73% 30.06 in 6.2 mi NNE 15.0 mph - N/A   Partly Cloudy
10:30 PM 75.2 °F - 66.2 °F 73% 30.06 in 6.2 mi NNE 15.0 mph - N/A   Partly Cloudy
11:00 PM 74 °F - 66 °F 70% 30.07 in - NNE 17.3 mph - -  
11:00 PM 75.2 °F - 66.2 °F 73% 30.06 in 6.2 mi NNE 17.3 mph - N/A   Partly Cloudy
11:30 PM 73.4 °F - 66.2 °F 78% 30.06 in 6.2 mi North 16.1 mph - N/A   Partly Cloudy